Regional Weather Roundup
Issued by NWS

Home | Current Version | Previous Version | Text Only | Print | Product List | Glossary Off
Versions: 1 2 3 4 5 6 7 8 9 10 11 12 13 14 15 16 17 18 19 20 21 22 23 24 25 26 27 28 29 30 31 32 33 34 35 36 37 38 39 40 41 42 43 44 45 46 47 48 49 50

000
ASUS45 KCYS 300410
RWRWY

WYOMING REGIONAL WEATHER ROUNDUP
NATIONAL WEATHER SERVICE CHEYENNE WY
900 PM MST THU JAN 29 2015

NOTE:  "FAIR" INDICATES FEW OR NO CLOUDS BELOW 12,000 FEET
WITH NO SIGNIFICANT WEATHER AND/OR OBSTRUCTIONS TO VISIBILITY.

WYZ001-300500-
YELLOWSTONE NATIONAL PARK

CITY           SKY/WX    TMP DP  RH WIND       PRES   REMARKS
LK YELLOWSTONE   N/A      8   4  83 CALM      30.36S
W YELLOWSTONE  NOT AVBL

$$
WYZ002>013-054>058-071-098>099-300500-
NORTHERN WYOMING

CITY           SKY/WX    TMP DP  RH WIND       PRES   REMARKS
JACKSON        FAIR      18  16  93 N3        30.34S
CODY           FAIR      28  27  93 S5        30.27F WCI  23
GREYBULL       FAIR      27  25  92 CALM      30.30S
WORLAND        FAIR      28  25  88 CALM      30.29S
SHERIDAN       FAIR      24  19  81 SW3       30.23F
BUFFALO        FAIR      32  23  69 NW10      30.24F WCI  24
GILLETTE       FAIR      28  22  78 S9        30.27F WCI  19
HULETT           N/A    N/A N/A N/A MISG        N/A
NEWCASTLE      FAIR      32  19  59 E10       30.33F WCI  24

$$
WYZ014>020-022>026-101>103-300500-
CENTRAL WYOMING

CITY           SKY/WX    TMP DP  RH WIND       PRES   REMARKS
BIG PINEY      FAIR      21  18  88 E5        30.33S WCI  15
PINEDALE       FAIR      14  14 100 W5        30.34S WCI   6
DUBOIS         FAIR      27  19  74 W8        30.27F WCI  18
LANDER         FAIR      29  25  85 CALM      30.27F
RIVERTON       FAIR      30  26  85 W6        30.29F WCI  24
CASPER         FAIR      31  26  82 W10       30.29F WCI  22
DOUGLAS        FAIR      31  21  66 SE10      30.32F WCI  22

$$
WYZ021-027>030-104>119-300500-
SOUTHERN WYOMING

CITY           SKY/WX    TMP DP  RH WIND       PRES   REMARKS
EVANSTON       FAIR      32  27  81 N7        30.29F WCI  26
KEMMERER       FAIR      28  25  86 N10       30.30F WCI  19
FORT BRIDGER   FAIR      32  30  92 NE7       30.32F WCI  26
ROCK SPRINGS   FAIR      32  27  81 E5        30.29F WCI  27
DIXON          FAIR      32  28  87 CALM      30.33S
RAWLINS        FAIR      29  25  85 CALM      30.31F
SARATOGA       FAIR      28  27  93 MISG      30.31F
LARAMIE        FAIR      29  23  78 S16G25    30.30F WCI  17
CHEYENNE       FAIR      32  19  58 S13       30.35F WCI  22
TORRINGTON     FAIR      32  20  61 SE10      30.35F WCI  24
PINE BLUFFS    FAIR      28  21  74 S7        30.37F WCI  21

$$


USA.gov is the U.S. government's official web portal to all federal, state and local government web resources and services.